Powrót do katalogu

HISPASAT 1B

AktywnyŁącznośćGEO
NORAD 22723·PAYLOAD·🇪🇸 Spain

Wystrzelony Jul 22, 1993 z Guiana Space Centre

Loading…

TLE

ŚwieżeSource: Space-Track

Epoka: Sep 13, 2026, 17:51 UTC

1 22723U 93048A   26256.74398125 -.00000351  00000-0  00000-0 0  9990
2 22723  13.7952  12.4260 0002991 284.7508  85.6785  0.99724123120723

Śledź HISPASAT 1B w czasie rzeczywistym z AllMySat

Download on the App Store